Stations météo

Publicité
Freiburg, Allemagne (10803): Température de l'air & dewpoint: 15.01.2018 04:00:00 - 21.01.2018 04:00:00 (CET)Freiburg, Allemagne (10803): Température de l'air 5cm & Température de l'air -5cm: 15.01.2018 04:00:00 - 21.01.2018 04:00:00 (CET)Freiburg, Allemagne (10803): Température de l'air -20cm & Température de l'air -100cm: 15.01.2018 04:00:00 - 21.01.2018 04:00:00 (CET)Freiburg, Allemagne (10803): Vitesse du vent & gusts: 15.01.2018 04:00:00 - 21.01.2018 04:00:00 (CET)Freiburg, Allemagne (10803): Direction du vent: 15.01.2018 04:00:00 - 21.01.2018 04:00:00 (CET)Freiburg, Allemagne (10803): reduced air pressure: 15.01.2018 04:00:00 - 21.01.2018 04:00:00 (CET)Freiburg, Allemagne (10803): visibility: 15.01.2018 04:00:00 - 21.01.2018 04:00:00 (CET)Freiburg, Allemagne (10803): Ensoleillement: 15.01.2018 04:00:00 - 21.01.2018 04:00:00 (CET)Freiburg, Allemagne (10803): Quantités de précipitations: 15.01.2018 04:00:00 - 21.01.2018 04:00:00 (CET)
Date & Time tt [°C] td [°C] tt 5cm [°C] tt -5cm [°C] tt -20cm [°C] tt -100cm [°C] ff [km/h] ff [knt] fx [km/h] fx [knt] dd ppp [hPa] vv [km] sd [min] rr [mm]
21.01.2018 04:00:00 4,8 4,0 4,2 4,7 5,1 6,8 5 3 9 5 SW 1008,7 42 0 0,0
21.01.2018 03:00:00 5,1 3,8 4,5 5,0 5,1 6,8 7 4 17 9 N 1007,2 56 0 0,1
21.01.2018 02:00:00 5,7 4,6 5,3 5,3 5,1 6,8 9 5 16 8 N 1005,2 20 0 0,0
21.01.2018 01:00:00 6,7 6,2 5,9 5,4 5,1 6,8 0 0 9 5 N 1003,1 67 0 0,5
21.01.2018 00:00:00 6,9 6,1 6,1 5,5 5,0 6,8 6 3 14 8 SW 1001,7 66 0 0,0
20.01.2018 23:00:00 7,6 6,5 6,7 5,7 4,9 6,8 13 7 26 14 WSW 1000,6 35 0 0,0
20.01.2018 22:00:00 7,5 6,3 6,6 5,7 4,8 6,8 19 10 35 19 SW 1000,3 46 0 0,2
20.01.2018 21:00:00 7,3 6,0 6,5 5,4 4,7 6,8 21 12 39 21 SW 1000,2 54 0 0,9
20.01.2018 20:00:00 6,7 5,4 5,9 5,1 4,6 6,8 25 13 47 25 SW 1000,3 23 0 0,1
20.01.2018 19:00:00 6,7 4,2 6,2 4,8 4,6 6,8 33 18 55 30 SSW 999,9 70 0 0,0
20.01.2018 18:00:00 6,2 3,3 4,9 4,5 4,6 6,8 23 13 42 23 SW 999,4 70 0 0,3
20.01.2018 17:00:00 6,2 2,3 5,4 4,5 4,5 6,8 21 11 38 21 SW 1000,2 51 0 0,0
20.01.2018 16:00:00 5,6 2,1 4,8 4,9 4,4 6,8 13 7 39 21 SW 1001,6 42 0 0,0
20.01.2018 15:00:00 6,3 1,4 6,1 5,0 4,3 6,8 22 12 41 22 SSW 1003,4 63 0 0,0
20.01.2018 14:00:00 7,0 -0,3 6,6 4,9 4,1 6,8 24 13 37 20 SSW 1005,0 70 0 0,0
20.01.2018 13:00:00 6,5 0,2 6,5 4,6 4,0 6,8 18 10 46 25 SSW 1007,3 70 0 0,0
20.01.2018 12:00:00 5,6 0,4 5,3 3,9 3,9 6,8 35 19 55 30 SSW 1010,3 70 0 0,0
20.01.2018 11:00:00 4,9 1,0 4,7 3,5 3,8 6,8 25 13 45 24 SSW 1012,1 70 0 0,0
20.01.2018 10:00:00 4,8 1,0 4,4 3,1 3,8 6,8 29 15 43 23 SSW 1013,2 66 0 0,0
20.01.2018 09:00:00 4,4 0,9 3,9 2,6 3,8 6,8 27 15 45 24 SSW 1014,1 61 0 0,0
20.01.2018 08:00:00 4,0 0,9 3,0 2,3 3,9 6,8 24 13 38 20 SSW 1014,1 66 0 0,0
20.01.2018 07:00:00 3,3 0,8 2,3 2,6 3,9 6,8 21 12 42 23 SSW 1014,7 65 0 0,0
20.01.2018 06:00:00 3,9 0,7 2,7 2,7 3,9 6,8 24 13 42 23 SW 1015,0 20 0 0,0
20.01.2018 05:00:00 4,2 0,4 3,3 2,5 4,0 6,8 25 14 39 21 SSW 1015,5 48 0 0,0
20.01.2018 04:00:00 4,1 0,3 3,1 2,3 4,0 6,8 24 13 40 22 SSW 1016,0 70 0 0,0
20.01.2018 03:00:00 4,0 0,5 2,6 2,4 4,1 6,8 23 12 39 21 SSW 1016,8 70 0 0,1
20.01.2018 02:00:00 3,8 0,4 3,2 2,3 4,2 6,8 23 12 34 19 SSW 1017,0 70 0 0,0
20.01.2018 01:00:00 3,4 0,5 2,1 2,1 4,4 6,8 19 11 32 17 SSW 1017,3 70 0 0,0
20.01.2018 00:00:00 3,2 1,1 2,7 2,6 4,5 6,8 16 9 24 13 SW 1017,1 58 0 0,0
19.01.2018 23:00:00 3,4 1,0 2,8 2,6 4,6 6,8 14 8 27 14 SSW 1016,2 70 0 0,0
19.01.2018 22:00:00 3,4 1,2 2,8 3,0 4,8 6,8 21 11 33 18 SW 1015,8 70 0 0,0
19.01.2018 21:00:00 3,7 1,5 2,6 3,3 4,9 6,8 21 11 38 20 SW 1015,3 70 0 0,0
19.01.2018 20:00:00 4,5 2,2 3,5 3,7 5,0 6,8 24 13 43 23 SW 1014,4 61 0 0,0
19.01.2018 19:00:00 4,5 2,1 3,5 3,9 5,1 6,8 14 8 29 16 SSW 1013,6 47 0 0,1
19.01.2018 18:00:00 4,7 1,9 3,5 4,1 5,2 6,8 16 9 45 24 SW 1013,7 29 0 0,1
19.01.2018 17:00:00 5,4 1,8 4,3 4,7 5,2 6,8 21 11 32 17 SW 1013,5 70 0 0,1
19.01.2018 16:00:00 6,1 1,8 4,7 5,2 5,2 6,8 11 6 32 18 SW 1013,6 9 0 0,0
19.01.2018 15:00:00 6,5 0,9 6,3 5,6 5,1 6,8 19 11 32 18 SSW 1013,6 70 0 0,0
19.01.2018 14:00:00 6,2 0,5 6,0 5,6 5,0 6,8 17 9 36 19 SSW 1014,1 70 0 0,0
19.01.2018 13:00:00 6,0 1,1 6,1 5,9 4,8 6,8 20 11 34 18 SSW 1015,0 70 19 0,0
19.01.2018 12:00:00 6,0 0,4 7,0 5,8 4,7 6,8 21 11 36 19 SSW 1015,3 70 8 0,0
19.01.2018 11:00:00 4,9 1,0 4,8 4,3 4,7 6,8 18 10 33 18 SSW 1015,8 70 23 0,0
19.01.2018 10:00:00 5,0 2,1 5,5 4,1 4,7 6,8 17 9 26 14 SW 1014,9 50 17 0,0
19.01.2018 09:00:00 4,7 1,2 3,7 3,2 4,9 6,8 16 9 22 12 SW 1014,4 70 0 0,0
19.01.2018 08:00:00 4,7 0,0 3,6 3,1 5,0 6,8 10 6 16 9 SW 1013,8 70 0 0,0
19.01.2018 07:00:00 4,6 0,2 2,1 3,2 5,2 6,8 6 4 19 10 SW 1012,8 70 0 0,0
19.01.2018 06:00:00 5,5 1,3 4,2 4,1 5,3 6,8 13 7 24 13 SW 1011,6 70 0 0,0
19.01.2018 05:00:00 5,3 2,0 3,7 4,6 5,4 6,8 8 4 34 18 NW 1010,7 70 0 0,0
19.01.2018 04:00:00 7,0 4,2 6,1 5,0 5,4 6,8 18 10 28 15 WSW 1009,5 52 0 0,0
19.01.2018 03:00:00 6,7 3,7 5,0 5,1 5,5 6,8 9 5 36 19 SW 1009,0 70 0 0,0
19.01.2018 02:00:00 7,6 4,7 6,7 5,5 5,5 6,8 19 11 31 17 SSW 1008,5 70 0 0,0
19.01.2018 01:00:00 6,8 5,6 5,9 5,5 5,5 6,8 10 5 23 13 SW 1008,2 70 0 0,0
19.01.2018 00:00:00 7,1 5,1 6,0 5,6 5,5 6,8 14 8 36 19 SW 1007,9 70 0 0,1
18.01.2018 23:00:00 6,7 5,4 5,8 5,6 5,5 6,8 10 5 18 10 S 1007,9 22 0 0,9
18.01.2018 22:00:00 6,8 5,4 5,6 5,6 5,6 6,8 7 4 19 10 SE 1008,0 70 0 0,9
18.01.2018 21:00:00 6,8 5,3 5,8 5,9 5,6 6,8 13 7 19 10 S 1008,5 9 0 0,7
18.01.2018 20:00:00 6,9 5,8 6,1 6,2 5,5 6,8 7 4 31 17 W 1008,7 10 0 4,2
18.01.2018 19:00:00 7,9 6,5 7,1 6,4 5,3 6,8 24 13 61 33 WSW 1007,7 4,5 0 3,0
18.01.2018 18:00:00 9,1 4,5 8,1 6,4 5,2 6,8 38 21 67 36 SW 1007,0 70 0 0,0
18.01.2018 17:00:00 9,4 4,9 8,8 6,7 5,0 6,8 36 20 67 36 SW 1007,2 70 0 0,0
18.01.2018 16:00:00 9,5 5,0 8,9 6,7 4,8 6,8 44 24 68 37 SW 1007,4 70 0 0,0
18.01.2018 15:00:00 9,4 4,8 8,9 6,5 4,7 6,8 44 24 72 39 SSW 1008,1 70 0 0,0
18.01.2018 14:00:00 8,7 4,4 8,2 6,1 4,5 6,8 48 26 71 39 SSW 1008,8 70 0 0,0
18.01.2018 13:00:00 8,2 4,0 7,8 6,0 4,2 6,8 50 27 76 41 SSW 1009,0 55 7 0,0
18.01.2018 12:00:00 7,7 4,0 7,5 5,5 4,1 6,8 41 22 68 37 SSW 1010,2 70 0 0,0
18.01.2018 11:00:00 6,9 3,5 6,7 4,8 3,9 6,8 33 18 63 34 SW 1010,8 70 0 0,0
18.01.2018 10:00:00 6,4 2,7 5,9 4,1 3,8 6,9 35 19 65 35 SW 1010,7 70 0 0,0
18.01.2018 09:00:00 5,5 2,6 4,9 3,7 3,8 6,9 35 19 63 34 SW 1010,7 70 0 0,0
18.01.2018 08:00:00 4,8 2,3 3,7 3,4 3,7 6,9 32 17 63 34 SW 1010,7 55 0 0,4
18.01.2018 07:00:00 5,1 2,0 3,7 3,3 3,7 6,9 35 19 58 32 SSW 1011,4 45 0 0,2
18.01.2018 06:00:00 4,8 1,9 3,4 3,1 3,6 6,9 33 18 59 32 SSW 1012,8 26 0 0,2
18.01.2018 05:00:00 4,7 1,6 3,6 3,0 3,6 6,9 33 18 58 32 SSW 1013,9 40 0 0,0
18.01.2018 04:00:00 4,8 0,8 3,7 2,8 3,6 6,9 31 17 56 30 SSW 1014,8 50 0 0,0
18.01.2018 03:00:00 4,6 0,9 3,5 2,7 3,6 6,9 28 15 48 26 SSW 1016,3 38 0 0,0
18.01.2018 02:00:00 4,3 0,9 3,0 2,5 3,6 6,9 24 13 48 26 SSW 1017,1 47 0 0,0
18.01.2018 01:00:00 3,9 0,8 3,0 2,4 3,6 6,9 27 14 46 25 SSW 1017,5 49 0 0,0
18.01.2018 00:00:00 3,4 0,7 2,4 2,2 3,6 6,8 33 18 50 27 SSW 1017,7 38 0 0,0
17.01.2018 23:00:00 3,9 -0,2 2,6 2,1 3,7 6,8 29 16 44 24 SSW 1017,4 33 0 0,0
17.01.2018 22:00:00 4,2 -0,5 3,2 2,2 3,8 6,8 27 15 44 24 SSW 1016,9 58 0 0,0
17.01.2018 21:00:00 3,3 0,2 2,6 2,0 3,9 6,9 23 12 41 22 SSW 1017,0 52 0 0,0
17.01.2018 20:00:00 3,3 -0,1 1,9 2,1 4,0 6,8 21 11 35 19 SW 1016,5 66 0 0,0
17.01.2018 19:00:00 3,8 -0,8 2,8 2,3 4,1 6,8 21 11 33 18 SSW 1015,7 62 0 0,0
17.01.2018 18:00:00 4,0 -0,9 3,2 2,5 4,2 6,8 20 11 33 18 SSW 1015,2 54 0 0,0
17.01.2018 17:00:00 4,0 -0,7 3,3 2,8 4,2 6,8 20 11 44 24 SW 1014,5 64 3 0,0
17.01.2018 16:00:00 4,6 -1,9 4,0 3,2 4,3 6,8 23 12 40 22 SW 1013,5 70 2 0,0
17.01.2018 15:00:00 4,9 -3,0 4,3 3,5 4,3 6,8 21 11 49 26 WSW 1012,9 70 2 0,0
17.01.2018 14:00:00 5,0 -2,9 5,0 4,0 4,2 6,8 27 14 46 25 W 1012,4 70 5 0,0
17.01.2018 13:00:00 4,6 -2,1 4,0 4,2 4,1 6,8 11 6 35 19 W 1011,6 70 10 0,0
17.01.2018 12:00:00 2,6 0,4 2,9 3,0 4,1 6,8 20 11 39 21 W 1011,5 65 1 0,3
17.01.2018 11:00:00 3,7 -0,2 3,1 3,4 4,2 6,8 16 9 29 16 WSW 1009,8 70 7 0,0
17.01.2018 10:00:00 1,9 0,3 1,7 2,5 4,3 6,8 17 9 48 26 SW 1008,6 70 0 0,1
17.01.2018 09:00:00 2,9 -0,2 1,9 2,3 4,4 6,8 23 12 44 24 SW 1006,6 70 0 0,2
17.01.2018 08:00:00 4,2 -1,4 3,3 2,6 4,6 6,8 21 11 36 19 WSW 1005,4 70 0 0,0
17.01.2018 07:00:00 4,0 0,8 3,3 3,2 4,7 6,8 14 8 34 19 SW 1004,1 70 0 0,0
17.01.2018 06:00:00 4,0 1,8 3,4 3,5 4,8 6,8 27 15 41 22 SSW 1003,4 70 0 0,0
17.01.2018 05:00:00 4,1 2,1 3,3 3,7 4,9 6,9 26 14 43 23 SW 1002,8 70 0 0,0
17.01.2018 04:00:00 4,2 2,6 3,5 4,0 4,9 6,9 13 7 41 22 SW 1002,0 70 0 0,3
17.01.2018 03:00:00 5,5 3,5 4,5 4,3 5,0 6,9 16 8 32 17 SW 1001,6 30 0 0,0
17.01.2018 02:00:00 5,4 3,9 4,4 4,3 5,0 6,9 15 8 32 17 SW 1001,1 69 0 0,0
17.01.2018 01:00:00 4,6 2,8 3,7 4,5 5,1 6,9 21 11 52 28 WSW 1001,3 44 0 4,5
17.01.2018 00:00:00 6,5 2,6 5,6 4,6 5,2 6,9 24 13 35 19 SSW 1001,0 70 0 0,0
16.01.2018 23:00:00 6,0 3,2 4,6 4,6 5,3 6,9 15 8 27 15 SSW 1002,2 70 0 0,1
16.01.2018 22:00:00 6,4 4,5 5,4 4,7 5,4 6,9 16 9 23 13 SW 1002,8 53 0 0,0
16.01.2018 21:00:00 4,6 3,6 3,7 4,9 5,4 6,9 11 6 33 18 S 1003,1 70 0 0,9
16.01.2018 20:00:00 5,4 3,7 4,7 5,5 5,5 6,9 19 11 34 18 WNW 1003,3 9 0 3,2
16.01.2018 19:00:00 7,4 3,9 6,5 5,5 5,5 7,0 19 10 42 23 SW 1002,4 68 0 0,0
16.01.2018 18:00:00 7,4 4,3 6,6 5,6 5,6 7,0 24 13 40 21 SSW 1002,7 70 0 0,0
16.01.2018 17:00:00 8,1 4,7 7,2 6,1 5,5 7,0 27 15 36 20 SW 1002,4 70 0 0,0
16.01.2018 16:00:00 8,4 4,2 7,5 6,7 5,5 7,0 22 12 36 19 SSW 1003,0 70 15 0,0
16.01.2018 15:00:00 8,4 5,5 7,2 7,1 5,3 7,0 9 5 32 17 WNW 1002,6 70 0 0,3
16.01.2018 14:00:00 7,9 6,5 7,3 7,0 5,2 7,0 24 13 53 28 WSW 1002,5 70 0 0,4
16.01.2018 13:00:00 8,7 5,2 7,7 7,2 5,0 7,0 35 19 66 36 SW 1001,9 70 0 0,0
16.01.2018 12:00:00 8,9 6,3 8,1 6,9 4,8 7,0 35 19 52 28 SW 1002,0 46 0 0,0
16.01.2018 11:00:00 8,7 5,9 8,1 6,5 4,7 7,0 35 19 49 27 SW 1002,8 70 0 0,9
16.01.2018 10:00:00 7,7 6,7 7,0 6,0 4,5 7,0 29 16 49 26 SW 1003,3 44 0 3,0
16.01.2018 09:00:00 8,1 5,9 7,1 5,7 4,4 7,1 33 18 52 28 SW 1003,1 70 0 0,1
16.01.2018 08:00:00 8,1 4,9 7,3 5,5 4,3 7,1 32 18 57 31 SSW 1002,4 70 0 0,0
16.01.2018 07:00:00 8,6 4,5 7,8 5,6 4,2 7,1 36 20 67 36 SW 1002,5 70 0 0,0
16.01.2018 06:00:00 8,4 4,7 7,6 5,5 4,1 7,1 34 18 60 33 SW 1002,5 70 0 0,0
16.01.2018 05:00:00 8,3 4,3 7,6 5,3 3,9 7,1 35 19 61 33 SW 1003,4 70 0 0,0
16.01.2018 04:00:00 8,2 4,2 7,2 5,2 3,8 7,1 31 17 55 30 SW 1004,5 44 0 0,0
16.01.2018 03:00:00 8,0 4,5 7,0 5,1 3,6 7,1 36 20 60 32 SSW 1004,9 67 0 0,0
16.01.2018 02:00:00 8,4 4,2 7,5 5,0 3,4 7,1 35 19 56 30 SSW 1005,3 70 0 0,0
16.01.2018 01:00:00 8,0 4,2 7,1 4,8 3,3 7,1 27 15 45 24 SSW 1005,6 70 0 0,0
16.01.2018 00:00:00 7,6 4,1 6,6 4,5 3,1 7,2 27 15 52 28 SSW 1006,4 45 0 0,1
15.01.2018 23:00:00 7,6 3,5 6,0 4,2 2,9 7,2 29 16 47 25 SSW 1006,4 33 0 0,0
15.01.2018 22:00:00 7,3 3,3 5,7 4,0 2,7 7,2 24 13 54 29 SSW 1006,8 47 0 0,0
15.01.2018 21:00:00 7,0 3,3 5,8 3,9 2,5 7,2 32 17 61 33 SW 1007,7 48 0 0,1
15.01.2018 20:00:00 6,7 3,4 5,2 3,7 2,2 7,2 33 18 56 30 SW 1008,7 20 0 0,0
15.01.2018 19:00:00 9,4 0,8 7,9 3,3 1,9 7,2 26 14 49 27 SSW 1008,3 70 0 0,0
15.01.2018 18:00:00 8,7 1,0 7,2 2,6 1,7 7,2 29 15 42 23 SSW 1009,9 56 0 0,0
15.01.2018 17:00:00 7,9 1,1 6,4 1,6 1,5 7,2 22 12 37 20 SSW 1010,9 49 0 0,0
15.01.2018 16:00:00 8,0 0,8 6,7 1,1 1,4 7,3 19 10 36 20 SSW 1012,2 50 0 0,0
15.01.2018 15:00:00 8,2 0,6 7,1 0,7 1,4 7,3 19 11 30 16 SW 1013,9 49 2 0,0
15.01.2018 14:00:00 8,0 0,9 7,3 0,0 1,5 7,3 12 6 22 12 SW 1015,3 41 0 0,0
15.01.2018 13:00:00 8,1 0,3 7,0 -0,1 1,5 7,3 18 10 32 17 SW 1016,5 47 0 0,0
15.01.2018 12:00:00 7,7 0,2 6,2 -0,2 1,5 7,3 18 10 31 17 SSW 1017,6 45 0 0,0
15.01.2018 11:00:00 1,8 0,7 2,2 -0,3 1,5 7,3 4 2 11 6 SW 1019,5 8 0 0,0
15.01.2018 10:00:00 -0,3 -1,0 -0,1 -0,5 1,5 7,3 5 3 8 4 SW 1020,1 6 0 0,0
15.01.2018 09:00:00 -1,6 -2,3 -1,3 -0,8 1,6 7,3 2 1 4 2 SSW 1020,7 6 0 0,0
15.01.2018 08:00:00 -3,6 -4,6 -4,4 -1,2 1,6 7,3 0 0 4 2 N 1021,2 7 0 0,0
15.01.2018 07:00:00 -4,5 -5,5 -5,3 -1,3 1,7 7,3 3 2 5 3 NW 1021,6 6 0 0,0
15.01.2018 06:00:00 -4,8 -5,4 -7,2 -1,6 1,8 7,4 2 1 4 2 S 1021,7 3,2 0 0,0
15.01.2018 05:00:00 -4,8 -5,5 -6,5 -1,3 1,8 7,4 0 0 4 2 N 1022,2 2,2 0 0,0
15.01.2018 04:00:00 -4,4 -4,6 -6,7 -1,0 1,9 7,4 0 0 5 3 N 1022,5 1,9 0 0,0

tt = Température de l'air
td = dewpoint
tt 5cm = Température de l'air 5cm
tt -5cm = Température de l'air -5cm
tt -20cm = Température de l'air -20cm
tt -100cm = Température de l'air -100cm
ff = Vitesse du vent
fx = gusts
dd = Direction du vent
ppp = reduced air pressure
vv = visibility
sd = Ensoleillement
rr = Quantités de précipitations

stations d'obs. à proximité